Location: Lavington
(51.2833°N, 1.9833°W)
Time: 10:45:52
(UTC+00:00)

Cosmos 968 Rocket - Pass Details

Date: 01 June 2020
Orbit: 741 x 770 km, 74.0° (Epoch: 07 July)

Event Time Altitude Azimuth Distance (km) Brightness Sun altitude
Rises 22:06:09 0° 336° (NNW) 3,218 8.9 -11.9°
Reaches altitude 10° 22:08:33 10° 338° (NNW) 2,285 7.5 -12.1°
Maximum altitude 22:13:43 72° 63° (ENE) 790 3.6 -12.5°
Enters shadow 22:17:32 18° 146° (SE) 1,766 4.7 -12.7°
